Dewpoint
55 61 70 70 68 68 67 67 68 69 71 71 71 71 71 71 71 71 71 71 70 70 69 70 69 69 70 71 71 71 70 70 69 69 69 68 69 69 70 70 69 64 69
54 62 70 70 68 68 67 66 68 69 70 71 71 71 71 71 71 70 70 70 70 69 69 70 69 68 68 70 71 71 70 69 69 69 68 67 68 68 68 69 68 67 69
55 64 69 70 69 68 67 67 68 68 69 69 70 70 70 70 70 69 69 69 69 69 69 69 69 68 67 68 69 70 70 69 69 69 69 63 63 67 67 67 68 68 68
57 66 67 70 69 68 68 67 67 68 68 69 69 69 69 69 69 69 69 69 69 67 67 67 67 67 66 67 67 69 69 69 69 69 65 64 64 68 67 67 67 68 68
60 65 68 70 70 69 68 68 67 68 69 69 69 68 68 68 68 69 69 68 69 68 67 67 67 67 67 66 66 66 67 67 68 67 62 63 63 66 67 67 67 68 68
65 66 69 70 70 70 69 68 68 68 68 68 68 69 69 69 69 70 70 69 68 68 67 67 67 68 67 65 64 65 65 66 66 58 59 60 58 66 68 67 67 67 68
65 67 68 68 69 70 70 69 68 68 68 67 67 68 69 69 69 69 69 69 69 69 69 68 68 68 68 66 63 63 64 65 61 56 59 60 61 63 65 67 68 68 68
63 65 67 68 68 68 68 69 69 68 68 67 67 67 67 68 69 69 69 69 68 68 68 69 68 69 68 67 64 63 63 64 62 61 61 61 62 63 64 65 67 67 68
62 62 63 66 67 67 67 68 69 68 67 67 67 67 67 67 67 68 69 69 69 68 68 68 68 68 68 68 66 64 63 63 61 61 61 61 62 63 62 66 67 66 67
59 61 62 62 62 66 67 68 69 69 69 68 67 67 67 67 67 67 67 67 68 68 68 68 68 68 68 68 67 66 64 63 60 60 62 61 62 63 63 65 68 67 66
47 51 58 60 62 63 63 64 65 67 67 67 68 68 67 67 66 66 65 66 67 67 67 67 67 67 67 67 67 67 66 62 59 59 62 62 63 64 63 63 66 68 66
41 42 44 47 48 52 55 62 64 64 64 64 64 65 66 67 67 67 66 66 66 66 66 67 67 66 66 65 64 65 64 62 61 59 57 61 63 64 64 64 64 67 68
40 42 42 47 50 47 50 52 55 59 61 62 63 64 65 65 65 65 65 65 63 65 65 65 65 65 64 63 62 64 62 62 61 60 58 60 62 62 63 65 65 65 69
41 44 45 47 49 51 47 48 50 53 54 55 58 60 60 63 64 64 65 64 62 63 63 63 64 64 64 63 63 63 63 63 61 59 59 61 62 62 62 63 65 65 67
42 46 47 47 49 50 48 49 49 51 53 53 54 56 57 59 60 62 63 63 63 63 64 63 62 62 62 63 63 62 62 63 63 62 60 60 61 62 62 62 63 64 66
46 47 48 47 48 47 48 49 51 52 53 51 51 53 54 54 57 57 57 61 63 64 64 63 62 61 61 61 61 61 61 61 62 62 62 59 60 61 62 62 63 64 65
44 48 45 44 49 48 49 48 46 49 49 51 47 51 51 51 53 51 53 55 58 59 59 63 63 62 61 60 60 60 61 61 61 61 61 61 58 60 60 61 62 63 64
43 47 45 47 46 48 47 47 43 45 47 50 47 50 49 49 49 49 50 54 54 53 54 56 61 61 59 59 59 59 59 60 59 60 60 60 60 58 58 60 61 61 62
42 46 46 48 45 46 45 43 44 45 46 49 45 48 47 46 47 48 48 49 50 50 51 53 53 55 59 59 59 59 59 59 59 58 58 60 60 60 57 56 59 60 61
41 44 46 47 46 45 43 41 40 41 42 45 42 44 43 44 46 46 47 49 46 47 49 49 50 52 53 56 59 59 59 60 60 59 58 59 59 60 60 59 57 58 59
39 42 43 43 45 43 41 39 39 39 38 39 39 39 41 42 43 43 44 44 44 45 47 47 48 48 50 52 53 57 58 59 61 61 60 60 60 59 60 60 59 58 57
39 41 42 42 42 42 41 41 41 39 38 38 39 38 38 39 41 41 42 40 41 43 44 44 45 44 47 50 50 50 54 56 60 60 61 60 60 61 60 60 60 59 59
39 40 40 43 42 42 43 41 39 38 38 38 37 37 38 38 39 40 40 39 40 41 41 41 43 43 42 45 49 50 52 52 54 60 61 61 61 61 61 61 60 60 60
39 39 41 43 41 40 39 37 35 34 33 35 34 33 34 37 37 37 37 38 38 39 39 39 40 41 42 41 44 49 49 50 53 52 59 59 60 60 61 62 61 61 61
40 39 40 41 39 39 37 35 33 32 32 33 33 33 33 33 34 35 36 37 38 38 38 37 37 37 38 38 39 40 42 47 50 56 53 53 56 58 61 61 62 62 61
39 38 38 38 37 36 35 34 32 33 32 31 31 32 30 31 31 32 34 35 36 36 35 34 34 33 34 35 35 37 38 40 42 43 53 53 55 57 60 61 61 62 62
Wind_Speed
12 15 22 19 18 15 14 13 14 13 12 13 15 16 16 16 16 16 15 14 13 11 9 8 5 6 7 8 9 9 10 10 11 10 11 12 12 11 12 12 12 12 13
12 17 20 19 18 17 15 15 15 14 13 13 13 14 14 14 14 14 13 12 12 12 11 9 8 6 6 6 8 9 9 10 10 10 10 11 10 11 11 10 7 13 13
12 15 16 14 13 11 9 9 9 10 10 10 11 12 13 11 11 11 11 10 10 11 10 9 9 8 7 7 7 7 9 10 10 9 9 9 9 9 9 9 8 10 13
13 13 13 12 12 12 11 11 11 10 8 7 6 7 7 7 7 7 7 7 8 9 9 9 8 8 8 8 9 8 8 9 10 9 10 8 8 11 10 8 9 10 10
9 9 7 7 6 5 5 8 11 11 9 8 6 5 5 4 3 4 4 5 6 8 9 9 9 8 8 8 9 10 10 10 9 10 9 8 7 13 12 11 11 10 10
11 8 9 10 7 5 2 0 2 3 5 5 5 4 3 3 4 4 5 6 6 8 9 10 9 9 9 9 10 11 12 13 12 11 9 9 8 10 13 13 11 11 12
14 12 9 6 4 8 7 6 4 3 1 2 4 5 4 4 4 5 7 7 8 8 9 10 10 10 10 11 12 12 13 14 15 13 11 10 11 10 14 15 14 14 14
15 12 10 6 6 6 8 12 9 6 5 3 4 6 8 9 9 7 8 9 10 11 11 12 12 12 12 13 14 14 15 16 15 14 14 13 12 13 15 16 18 17 17
25 21 15 9 4 2 4 7 8 6 4 5 6 7 8 10 11 10 10 10 10 12 13 14 14 14 14 14 15 16 17 17 16 15 15 14 14 16 15 17 19 19 19
30 29 24 16 14 11 9 9 7 4 3 4 6 7 8 10 10 14 13 12 13 13 14 15 16 16 16 17 17 17 18 18 20 18 17 16 12 16 17 15 20 21 21
31 29 27 26 22 17 14 12 10 8 7 7 8 8 10 10 11 11 11 13 16 17 16 18 17 19 19 18 19 19 17 18 19 19 17 17 17 18 18 18 17 21 23
30 29 27 26 25 22 20 17 16 14 13 13 14 13 11 11 13 13 16 17 17 22 20 21 21 20 19 18 16 16 16 20 19 20 20 19 20 21 22 21 20 20 25
25 26 25 21 20 21 20 18 16 15 15 14 16 16 14 14 14 14 14 13 12 14 19 17 18 16 18 18 18 15 18 19 19 20 23 20 22 25 26 24 23 21 24
24 23 22 21 20 20 17 17 16 15 15 16 17 20 19 15 15 15 15 15 12 14 15 16 15 17 16 19 20 21 19 18 19 20 23 24 24 26 28 28 25 24 23
23 21 21 22 21 18 18 16 16 17 15 16 17 18 19 18 17 18 16 17 19 17 15 17 18 16 17 19 19 21 22 21 22 20 20 24 26 28 30 31 29 27 27
17 17 16 18 18 18 17 17 15 14 14 16 16 17 18 17 17 17 18 17 14 16 16 17 18 21 21 21 24 23 23 22 21 23 22 23 28 30 31 32 32 31 30
11 13 15 15 14 16 14 14 15 15 16 15 18 19 20 20 18 20 18 18 16 18 21 20 19 20 21 22 26 23 23 24 22 23 25 23 25 29 33 33 34 33 33
12 14 16 17 18 16 17 14 15 15 15 14 18 16 21 21 21 22 20 17 19 20 19 19 22 22 23 23 24 24 24 24 23 24 23 25 24 25 25 35 35 35 34
14 15 17 17 19 18 17 15 13 16 15 14 18 17 21 21 22 21 19 18 21 18 20 19 20 21 22 25 24 26 26 24 22 24 24 26 27 26 24 24 34 35 35
14 16 16 15 18 17 14 15 13 15 14 13 17 18 23 20 22 21 20 19 22 21 18 19 22 20 18 22 23 23 26 24 22 24 23 24 26 25 26 28 23 25 35
16 17 18 19 18 18 17 18 15 17 15 15 16 21 20 21 21 19 17 20 20 20 21 20 21 23 19 17 23 22 25 24 28 27 23 24 27 27 25 26 23 23 21
15 17 18 18 19 19 18 18 16 16 14 16 16 19 20 21 21 21 19 20 19 20 20 20 20 22 19 14 9 21 23 21 26 30 23 22 24 22 24 27 26 25 24
16 15 17 19 21 21 22 18 19 17 18 20 20 21 22 22 22 20 21 22 21 17 18 20 19 20 22 21 13 9 9 19 17 14 21 19 21 19 23 24 25 25 25
20 21 22 21 23 21 21 19 22 19 20 19 18 18 21 22 22 21 23 22 21 20 19 19 18 18 19 20 17 9 15 16 9 12 8 14 14 20 24 21 20 22 23
19 20 18 18 22 22 23 22 22 22 18 17 18 23 22 21 23 24 24 22 21 19 20 22 21 19 16 18 15 15 16 15 18 15 18 11 9 19 18 17 17 18 20
20 22 21 21 20 21 21 22 25 24 23 22 23 20 20 19 20 23 25 22 22 20 21 20 20 21 19 18 16 14 11 6 8 7 10 21 24 18 19 16 15 18 18
Wind_Direction
206 175 165 165 160 163 163 156 142 133 133 139 144 143 148 155 155 151 150 152 157 161 155 147 146 140 137 138 137 137 141 141 142 146 145 144 141 138 140 136 145 140 138
175 173 166 165 162 165 165 161 152 145 140 143 142 144 149 155 158 152 154 160 166 168 167 165 164 169 161 155 151 149 146 150 153 153 151 151 153 150 147 146 162 140 149
153 164 168 162 155 153 158 156 151 146 141 144 146 148 149 157 156 152 160 167 172 176 179 179 180 180 180 173 174 171 165 163 163 162 163 169 160 167 160 156 151 137 138
143 156 167 161 151 154 162 165 161 157 156 154 146 139 142 148 150 159 171 181 187 190 191 195 197 195 187 184 180 179 180 177 173 170 179 171 177 177 178 179 172 163 151
115 137 134 122 120 136 169 179 172 166 166 162 156 152 149 156 172 188 199 210 215 213 210 211 210 206 198 199 193 186 185 186 189 192 188 188 186 180 189 190 186 182 178
68 84 78 87 79 89 123 230 279 171 162 164 166 166 182 205 224 235 234 228 230 239 235 230 225 218 210 207 209 204 192 190 189 205 201 194 206 180 193 196 201 197 190
56 51 69 83 77 45 34 17 0 357 332 207 193 199 213 235 247 257 266 262 258 255 262 261 249 235 226 222 215 214 211 202 203 203 210 214 217 212 213 207 203 200 199
52 46 48 61 39 26 21 26 20 4 350 302 263 254 236 219 219 240 257 265 274 275 272 272 273 267 249 238 231 227 223 216 218 222 223 224 220 222 231 228 207 204 203
40 33 21 19 48 74 30 9 18 20 355 329 300 278 268 278 268 237 236 253 256 269 276 278 273 271 271 262 252 244 238 234 234 237 236 235 223 225 232 227 212 208 207
43 41 36 39 30 23 21 19 12 354 335 304 290 280 274 279 266 285 277 250 243 247 259 265 269 270 266 265 263 260 256 253 247 249 249 243 248 241 241 232 216 210 210
46 45 45 48 49 48 40 26 21 12 355 333 312 286 272 255 249 242 248 276 286 274 262 252 252 257 260 260 259 258 255 257 254 252 251 249 241 243 249 246 235 219 215
49 49 47 48 47 50 44 34 25 14 1 347 332 320 301 280 272 265 264 216 215 247 247 254 252 247 248 253 249 240 251 251 253 255 253 250 249 246 245 245 244 236 220
51 50 45 46 46 46 42 35 30 23 15 7 1 354 336 318 297 280 266 256 261 259 268 246 249 246 256 256 249 237 237 244 250 251 255 240 239 249 248 246 244 239 226
50 47 42 39 40 40 40 35 30 26 16 12 6 2 351 340 328 311 297 292 281 260 261 271 270 262 243 250 252 255 244 239 246 247 250 245 229 236 246 248 244 237 230
44 39 34 32 31 30 35 31 26 21 17 7 5 2 359 347 347 331 299 289 276 275 261 255 248 248 260 255 247 246 248 245 247 248 250 245 234 230 236 242 241 237 232
41 35 30 32 27 25 24 20 17 14 7 9 5 0 360 350 346 338 339 326 294 280 269 265 259 248 242 238 246 235 239 239 240 246 248 249 234 233 233 235 236 234 232
35 34 32 30 27 24 19 18 15 6 1 2 359 353 359 355 350 345 335 331 330 342 329 278 252 261 263 251 244 241 236 231 231 239 249 248 250 230 233 233 235 233 231
24 25 24 21 20 17 14 8 13 8 2 357 356 354 356 351 348 344 336 339 339 331 324 313 292 256 260 258 257 253 241 233 221 228 238 247 246 247 232 229 231 233 230
16 16 17 17 15 10 10 6 5 5 2 358 355 352 354 347 346 341 332 329 330 322 320 317 312 318 285 269 264 256 250 241 229 228 227 243 243 243 246 238 225 229 231
16 17 16 16 16 8 8 6 7 5 4 360 354 358 350 347 342 344 331 332 329 322 318 317 311 304 302 298 279 245 248 241 240 236 224 232 244 242 242 245 240 230 227
19 16 19 17 13 10 9 6 0 359 356 358 354 351 351 344 343 339 332 331 329 325 312 316 313 312 306 307 312 280 263 252 241 234 230 225 238 240 237 239 237 240 234
19 17 13 15 15 15 8 5 1 352 352 353 354 348 352 345 341 339 335 332 328 324 322 320 320 313 300 297 292 307 270 254 233 232 222 223 231 235 239 237 234 232 235
10 7 8 14 15 16 10 7 3 360 358 357 357 348 345 343 343 343 345 334 330 329 322 324 318 315 311 303 285 266 286 246 271 215 220 216 229 237 242 239 233 231 232
7 10 14 16 16 16 15 13 13 4 353 351 349 344 344 344 346 350 348 336 336 332 334 327 327 323 313 306 315 269 290 286 279 241 205 216 220 243 243 239 238 231 230
13 13 14 18 18 18 16 13 7 4 0 352 351 348 348 348 353 355 347 343 340 345 342 343 341 338 334 317 317 313 315 307 287 274 263 260 251 241 234 234 244 243 232
14 14 14 17 21 17 15 16 12 12 5 0 356 351 351 352 351 356 352 349 348 0 354 352 351 347 344 332 328 322 324 332 334 330 267 252 221 223 232 227 228 236 237